Retour au catalogue

STARLINK-35919

ActifCommunicationsVLEO
NORAD 66888·PAYLOAD·🇺🇸 United States

Lancé Dec 4, 2025 depuis Vandenberg Space Force Base

Loading…

Prochains Passages (prochaines 24 heures)

TLE

FraisSource: CelesTrak SupGP

Époque: Sep 14, 2026, 22:43 UTC

1 66888C 25283L   26257.94701389  .00012347  00000+0  36423-3 0  2573
2 66888  53.1573 221.8932 0001607  92.9913 328.7962 15.34432372    18

Suivez STARLINK-35919 en temps réel avec AllMySat

Download on the App Store